Regional Weather Roundup
Issued by NWS

Home | Current Version | Previous Version | Text Only | Print | Product List | Glossary On
Versions: 1 2 3 4 5 6 7 8 9 10 11 12 13 14 15 16 17 18 19 20 21 22 23 24 25 26 27 28 29 30 31 32 33 34 35 36 37 38 39 40 41 42 43 44 45 46 47 48 49 50
000
ASUS43 KDTX 010001
RWRMI
MICHIGAN HOURLY REGIONAL WEATHER ROUNDUP
NATIONAL WEATHER SERVICE DETROIT/PONTIAC MI
800 PM EDT TUE MAY 31 2016

NOTE: "FAIR" INDICATES FEW OR NO CLOUDS BELOW 12,000 FEET WITH NO
SIGNIFICANT WEATHER AND/OR OBSTRUCTION TO VISIBILITY.

MIZ047>049-052>055-059>063-066>070-074>076-081>083-010100-
SOUTHEAST LOWER MICHIGAN

CITY           SKY/WX    TMP DP  RH WIND       PRES   REMARKS
ADRIAN         CLEAR     78  50  37 SE12      30.03R
6HR MIN TEMP:  78; 6HR MAX TEMP:  85;

ALMA           MOSUNNY   74  54  50 NE10G17   30.03S
6HR MIN TEMP:  74; 6HR MAX TEMP:  81;

ANN ARBOR      PTCLDY    76  45  33 SE9       30.03R
BAD AXE        PTCLDY    60  47  62 E6        30.10S
CARO           MOSUNNY   70  52  53 E7        30.06R
DETROIT CITY   MOCLDY    71  52  50 E14       30.05S
6HR MIN TEMP:  71; 6HR MAX TEMP:  79;

DETROIT        PTCLDY    76  47  35 E7        30.04S
6HR MIN TEMP:  76; 6HR MAX TEMP:  82;

FLINT          MOSUNNY   76  56  49 E14       30.04R
6HR MIN TEMP:  76; 6HR MAX TEMP:  85;

GROSSE ILE     PTCLDY    75  48  38 NE7       30.02F
HILLSDALE      SUNNY     77  34  21 E7        30.03R
6HR MIN TEMP:  77; 6HR MAX TEMP:  83;

HOWELL         SUNNY     76  49  37 SE7       30.03R

CITY           SKY/WX    TMP DP  RH WIND       PRES   REMARKS
JACKSON        SUNNY     77  44  30 SE10      30.02S
6HR MIN TEMP:  77; 6HR MAX TEMP:  83;

LAMBERTVILLE   PTCLDY    76  52  43 E7        30.03S
6HR MIN TEMP:  76; 6HR MAX TEMP:  82;

LANSING        MOSUNNY   78  53  41 E8        30.02R
6HR MIN TEMP:  77; 6HR MAX TEMP:  83;

LAPEER         FAIR      70  53  54 E6        30.06S
6HR MIN TEMP:  70; 6HR MAX TEMP:  78;

MASON          MOSUNNY   78  49  36 E5        30.03R
MONROE         MOCLDY    74  53  47 E8        30.02S
6HR MIN TEMP:  74; 6HR MAX TEMP:  80;

PONTIAC        MOCLDY    75  46  35 E9        30.04R
6HR MIN TEMP:  75; 6HR MAX TEMP:  84;

PORT HOPE        N/A     57  49  74 NE8       30.09S
6HR MIN TEMP:  56; 6HR MAX TEMP:  57;

PORT HURON     CLOUDY    59  48  67 N8        30.09S
TRI CITIES     MOSUNNY   69  54  58 NE14      30.06S
6HR MIN TEMP:  69; 6HR MAX TEMP:  79;

MIDLAND        FAIR      64  48  57 E10G18    30.06S
6HR MIN TEMP:  64; 6HR MAX TEMP:  76;

TROY           PTCLDY    77  52  41 E9        30.06S
SAGINAW HB     CLOUDY    73  50  43 NE12      30.04S
$$
MIZ043>046-050>051-056>058-064>065-071>073-077>080-010100-
SOUTHWEST LOWER MICHIGAN

CITY           SKY/WX    TMP DP  RH WIND       PRES   REMARKS
BATTLE CREEK   SUNNY     79  47  32 E6        30.00S
6HR MIN TEMP:  79; 6HR MAX TEMP:  82;

BENTON HARBOR  PTSUNNY   67  55  65 W7        30.03R
6HR MIN TEMP:  67; 6HR MAX TEMP:  87;

BIG RAPIDS     SUNNY     77  49  36 SE6       30.01R
6HR MIN TEMP:  76; 6HR MAX TEMP:  79;

COLDWATER      SUNNY     78  45  30 E13       30.00R
6HR MIN TEMP:  77; 6HR MAX TEMP:  83;

FREMONT        FAIR      79  49  34 SE6       29.98S
6HR MIN TEMP:  79; 6HR MAX TEMP:  83;

HOLLAND        PTSUNNY   73  52  47 W10G26    30.01R
6HR MIN TEMP:  73; 6HR MAX TEMP:  87;

GRAND RAPIDS   PTSUNNY   82  50  32 SE9       29.99S
6HR MIN TEMP:  82; 6HR MAX TEMP:  86;

IONIA          FAIR      78  46  31 E12       30.00R
6HR MIN TEMP:  78; 6HR MAX TEMP:  82;

KALAMAZOO      CLOUDY    79  49  34 E3        29.99R
6HR MIN TEMP:  79; 6HR MAX TEMP:  85;

LUDINGTON      MOSUNNY   71  51  50 N6        30.00S
6HR MIN TEMP:  71; 6HR MAX TEMP:  80;

MARSHALL       SUNNY     79  45  30 SE8       30.00R
6HR MIN TEMP:  79; 6HR MAX TEMP:  83;

MOUNT PLEASANT SUNNY     70  53  54 E12       30.03S
6HR MIN TEMP:  70; 6HR MAX TEMP:  81;

MUSKEGON       MOSUNNY   73  53  49 NW3       29.98R
6HR MIN TEMP:  73; 6HR MAX TEMP:  88;

SOUTH HAVEN    CLOUDY    68  53  59 NW6       30.01R
$$
MIZ016>042-010100-
NORTHERN LOWER MICHIGAN

CITY           SKY/WX    TMP DP  RH WIND       PRES   REMARKS
ALPENA         SUNNY     60  45  57 E10       30.11S
6HR MIN TEMP:  60; 6HR MAX TEMP:  68;

BEAVER ISLAND  SUNNY     64  48  57 E12G17    30.03S
6HR MIN TEMP:  64; 6HR MAX TEMP:  68;

BELLAIRE       SUNNY     78  47  33 E10G17    30.00S
6HR MIN TEMP:  76; 6HR MAX TEMP:  82;

CADILLAC       MOSUNNY   76  52  43 SE8       30.02S
CHARLEVOIX     SUNNY     73  50  45 E8        30.04S
FRANKFORT      MOSUNNY   72  55  53 NW5       29.98R
GAYLORD        SUNNY     71  48  43 E7        30.07R
6HR MIN TEMP:  71; 6HR MAX TEMP:  78;

GRAYLING       SUNNY     73  53  50 E10       30.06R
6HR MIN TEMP:  73; 6HR MAX TEMP:  82;

HARBOR SPRINGS SUNNY     67  49  51 NE13      30.04S
HOUGHTON LAKE  SUNNY     70  52  52 SE9G16    30.06R
6HR MIN TEMP:  70; 6HR MAX TEMP:  80;

MANISTEE       CLOUDY    72  50  46 NW7       30.00S
OSCODA         SUNNY     59  44  56 E3        30.12R
6HR MIN TEMP:  59; 6HR MAX TEMP:  62;

PELLSTON       SUNNY     67  43  41 E14       30.06S
6HR MIN TEMP:  67; 6HR MAX TEMP:  73;

ROGERS CITY    SUNNY     63  44  49 S8        30.11R
TRAVERSE CITY  PTSUNNY   70  52  52 W6        29.97S
6HR MIN TEMP:  66; 6HR MAX TEMP:  75;

$$
MIZ007>008-015-010100-
EASTERN UPPER MICHIGAN

CITY           SKY/WX    TMP DP  RH WIND       PRES   REMARKS
KINROSS          N/A     64  46  52 S12       30.08S
6HR MIN TEMP:  64; 6HR MAX TEMP:  72;

MACKINAC ISLAN SUNNY     61  46  57 E13G20    30.07S
6HR MIN TEMP:  61; 6HR MAX TEMP:  63;

NEWBERRY       SUNNY     66  44  45 SE13      30.05R
6HR MIN TEMP:  66; 6HR MAX TEMP:  73;

S. S. MARIE    SUNNY     67  46  47 SE12      30.07S
6HR MIN TEMP:  67; 6HR MAX TEMP:  72;

MUNISING         N/A     54  48  80 CALM      30.00R
6HR MIN TEMP:  50; 6HR MAX TEMP:  56;

$$
MIZ004>006-011>014-085-010100-
CENTRAL UPPER MICHIGAN

CITY           SKY/WX    TMP DP  RH WIND       PRES   REMARKS
MANISTIQUE     CLOUDY    65  44  45 E13G21    30.02S
6HR MIN TEMP:  65; 6HR MAX TEMP:  68;

ESCANABA       CLOUDY    64  48  55 SE10      30.00S
MENOMINEE      CLOUDY    60  51  72 E7        29.99S
SAWYER-GWINN   SUNNY     68  43  40 SE12      30.00S
$$
MIZ001>003-009>011-084-010100-
WESTERN UPPER MICHIGAN

CITY           SKY/WX    TMP DP  RH WIND       PRES   REMARKS
IRON MOUNTAIN  PTSUNNY   66  45  46 SE7       29.97S
6HR MIN TEMP:  66; 6HR MAX TEMP:  72;

HOUGHTON       CLOUDY    48  39  71 E13       29.95S
6HR MIN TEMP:  46; 6HR MAX TEMP:  50; 6HR PCP: TRACE;

COPPER HARBOR    N/A     54  40  59 S15G24    29.96S
6HR MIN TEMP:  49; 6HR MAX TEMP:  57;

IRONWOOD       CLOUDY    57  57 100 CALM      29.89S
6HR MIN TEMP:  55; 6HR MAX TEMP:  72; 6HR PCP:  0.06;

$$

ABBREVIATIONS USED IN REMARKS
   TC - TEMPERATURE IN CELSIUS
  WCI - WIND CHILL INDEX
   HX - HEAT INDEX
  VSB - VISIBILITY





USA.gov is the U.S. government's official web portal to all federal, state and local government web resources and services.